Index of /20260504/WXO-DD/model_rdps/10km/00/046
Name Last modified Size Description
Parent Directory -
20260504T00Z_MSC_RDPS_AbsoluteVorticity_IsbL-0250_RLatLon0.09_PT046H.grib2 2026-05-04 02:55 613K
20260504T00Z_MSC_RDPS_AbsoluteVorticity_IsbL-0500_RLatLon0.09_PT046H.grib2 2026-05-04 02:55 690K
20260504T00Z_MSC_RDPS_AbsoluteVorticity_IsbL-0700_RLatLon0.09_PT046H.grib2 2026-05-04 02:55 619K
20260504T00Z_MSC_RDPS_AbsoluteVorticity_IsbL-0850_RLatLon0.09_PT046H.grib2 2026-05-04 02:55 789K
20260504T00Z_MSC_RDPS_AirTemp_AGL-120m_RLatLon0.09_PT046H.grib2 2026-05-04 02:55 392K
20260504T00Z_MSC_RDPS_AirTemp_AGL-2m_RLatLon0.09_PT046H.grib2 2026-05-04 02:55 625K
20260504T00Z_MSC_RDPS_AirTemp_AGL-40m_RLatLon0.09_PT046H.grib2 2026-05-04 02:55 401K
20260504T00Z_MSC_RDPS_AirTemp_AGL-80m_RLatLon0.09_PT046H.grib2 2026-05-04 02:55 396K
20260504T00Z_MSC_RDPS_AirTemp_IsbL-0001_RLatLon0.09_PT046H.grib2 2026-05-04 02:55 314K
20260504T00Z_MSC_RDPS_AirTemp_IsbL-0005_RLatLon0.09_PT046H.grib2 2026-05-04 02:55 292K
20260504T00Z_MSC_RDPS_AirTemp_IsbL-0010_RLatLon0.09_PT046H.grib2 2026-05-04 02:55 303K
20260504T00Z_MSC_RDPS_AirTemp_IsbL-0020_RLatLon0.09_PT046H.grib2 2026-05-04 02:55 319K
20260504T00Z_MSC_RDPS_AirTemp_IsbL-0030_RLatLon0.09_PT046H.grib2 2026-05-04 02:55 338K
20260504T00Z_MSC_RDPS_AirTemp_IsbL-0050_RLatLon0.09_PT046H.grib2 2026-05-04 02:55 317K
20260504T00Z_MSC_RDPS_AirTemp_IsbL-0100_RLatLon0.09_PT046H.grib2 2026-05-04 02:55 426K
20260504T00Z_MSC_RDPS_AirTemp_IsbL-0150_RLatLon0.09_PT046H.grib2 2026-05-04 02:55 425K
20260504T00Z_MSC_RDPS_AirTemp_IsbL-0175_RLatLon0.09_PT046H.grib2 2026-05-04 02:55 416K
20260504T00Z_MSC_RDPS_AirTemp_IsbL-0200_RLatLon0.09_PT046H.grib2 2026-05-04 02:55 417K
20260504T00Z_MSC_RDPS_AirTemp_IsbL-0225_RLatLon0.09_PT046H.grib2 2026-05-04 02:55 415K
20260504T00Z_MSC_RDPS_AirTemp_IsbL-0250_RLatLon0.09_PT046H.grib2 2026-05-04 02:55 421K
20260504T00Z_MSC_RDPS_AirTemp_IsbL-0275_RLatLon0.09_PT046H.grib2 2026-05-04 02:55 402K
20260504T00Z_MSC_RDPS_AirTemp_IsbL-0300_RLatLon0.09_PT046H.grib2 2026-05-04 02:55 410K
20260504T00Z_MSC_RDPS_AirTemp_IsbL-0350_RLatLon0.09_PT046H.grib2 2026-05-04 02:55 428K
20260504T00Z_MSC_RDPS_AirTemp_IsbL-0400_RLatLon0.09_PT046H.grib2 2026-05-04 02:55 431K
20260504T00Z_MSC_RDPS_AirTemp_IsbL-0450_RLatLon0.09_PT046H.grib2 2026-05-04 02:55 439K
20260504T00Z_MSC_RDPS_AirTemp_IsbL-0500_RLatLon0.09_PT046H.grib2 2026-05-04 02:55 449K
20260504T00Z_MSC_RDPS_AirTemp_IsbL-0550_RLatLon0.09_PT046H.grib2 2026-05-04 02:55 468K
20260504T00Z_MSC_RDPS_AirTemp_IsbL-0600_RLatLon0.09_PT046H.grib2 2026-05-04 02:55 449K
20260504T00Z_MSC_RDPS_AirTemp_IsbL-0650_RLatLon0.09_PT046H.grib2 2026-05-04 02:55 466K
20260504T00Z_MSC_RDPS_AirTemp_IsbL-0700_RLatLon0.09_PT046H.grib2 2026-05-04 02:55 491K
20260504T00Z_MSC_RDPS_AirTemp_IsbL-0750_RLatLon0.09_PT046H.grib2 2026-05-04 02:55 417K
20260504T00Z_MSC_RDPS_AirTemp_IsbL-0800_RLatLon0.09_PT046H.grib2 2026-05-04 02:55 458K
20260504T00Z_MSC_RDPS_AirTemp_IsbL-0850_RLatLon0.09_PT046H.grib2 2026-05-04 02:55 509K
20260504T00Z_MSC_RDPS_AirTemp_IsbL-0875_RLatLon0.09_PT046H.grib2 2026-05-04 02:55 528K
20260504T00Z_MSC_RDPS_AirTemp_IsbL-0900_RLatLon0.09_PT046H.grib2 2026-05-04 02:55 536K
20260504T00Z_MSC_RDPS_AirTemp_IsbL-0925_RLatLon0.09_PT046H.grib2 2026-05-04 02:55 532K
20260504T00Z_MSC_RDPS_AirTemp_IsbL-0950_RLatLon0.09_PT046H.grib2 2026-05-04 02:55 525K
20260504T00Z_MSC_RDPS_AirTemp_IsbL-0970_RLatLon0.09_PT046H.grib2 2026-05-04 02:55 519K
20260504T00Z_MSC_RDPS_AirTemp_IsbL-0985_RLatLon0.09_PT046H.grib2 2026-05-04 02:55 507K
20260504T00Z_MSC_RDPS_AirTemp_IsbL-1000_RLatLon0.09_PT046H.grib2 2026-05-04 02:55 493K
20260504T00Z_MSC_RDPS_AirTemp_IsbL-1015_RLatLon0.09_PT046H.grib2 2026-05-04 02:55 509K
20260504T00Z_MSC_RDPS_Albedo_Sfc_RLatLon0.09_PT046H.grib2 2026-05-04 02:55 156K
20260504T00Z_MSC_RDPS_CAPE_Sfc_RLatLon0.09_PT046H.grib2 2026-05-04 02:55 1.8M
20260504T00Z_MSC_RDPS_CIN_Sfc_RLatLon0.09_PT046H.grib2 2026-05-04 02:55 1.3M
20260504T00Z_MSC_RDPS_CloudWater_EAtm_RLatLon0.09_PT046H.grib2 2026-05-04 02:55 223K
20260504T00Z_MSC_RDPS_ConvectivePrecip-Accum_Sfc_RLatLon0.09_PT046H.grib2 2026-05-04 02:55 1.0M
20260504T00Z_MSC_RDPS_DewPointDepression_AGL-2m_RLatLon0.09_PT046H.grib2 2026-05-04 02:55 421K
20260504T00Z_MSC_RDPS_DewPointDepression_IsbL-0001_RLatLon0.09_PT046H.grib2 2026-05-04 02:55 193
20260504T00Z_MSC_RDPS_DewPointDepression_IsbL-0005_RLatLon0.09_PT046H.grib2 2026-05-04 02:55 193
20260504T00Z_MSC_RDPS_DewPointDepression_IsbL-0010_RLatLon0.09_PT046H.grib2 2026-05-04 02:55 193
20260504T00Z_MSC_RDPS_DewPointDepression_IsbL-0020_RLatLon0.09_PT046H.grib2 2026-05-04 02:55 193
20260504T00Z_MSC_RDPS_DewPointDepression_IsbL-0030_RLatLon0.09_PT046H.grib2 2026-05-04 02:55 193
20260504T00Z_MSC_RDPS_DewPointDepression_IsbL-0050_RLatLon0.09_PT046H.grib2 2026-05-04 02:55 77K
20260504T00Z_MSC_RDPS_DewPointDepression_IsbL-0100_RLatLon0.09_PT046H.grib2 2026-05-04 02:55 113K
20260504T00Z_MSC_RDPS_DewPointDepression_IsbL-0150_RLatLon0.09_PT046H.grib2 2026-05-04 02:55 147K
20260504T00Z_MSC_RDPS_DewPointDepression_IsbL-0175_RLatLon0.09_PT046H.grib2 2026-05-04 02:55 189K
20260504T00Z_MSC_RDPS_DewPointDepression_IsbL-0200_RLatLon0.09_PT046H.grib2 2026-05-04 02:55 226K
20260504T00Z_MSC_RDPS_DewPointDepression_IsbL-0225_RLatLon0.09_PT046H.grib2 2026-05-04 02:55 259K
20260504T00Z_MSC_RDPS_DewPointDepression_IsbL-0250_RLatLon0.09_PT046H.grib2 2026-05-04 02:55 301K
20260504T00Z_MSC_RDPS_DewPointDepression_IsbL-0275_RLatLon0.09_PT046H.grib2 2026-05-04 02:55 312K
20260504T00Z_MSC_RDPS_DewPointDepression_IsbL-0300_RLatLon0.09_PT046H.grib2 2026-05-04 02:55 331K
20260504T00Z_MSC_RDPS_DewPointDepression_IsbL-0350_RLatLon0.09_PT046H.grib2 2026-05-04 02:55 335K
20260504T00Z_MSC_RDPS_DewPointDepression_IsbL-0400_RLatLon0.09_PT046H.grib2 2026-05-04 02:55 344K
20260504T00Z_MSC_RDPS_DewPointDepression_IsbL-0450_RLatLon0.09_PT046H.grib2 2026-05-04 02:55 348K
20260504T00Z_MSC_RDPS_DewPointDepression_IsbL-0500_RLatLon0.09_PT046H.grib2 2026-05-04 02:55 352K
20260504T00Z_MSC_RDPS_DewPointDepression_IsbL-0550_RLatLon0.09_PT046H.grib2 2026-05-04 02:55 365K
20260504T00Z_MSC_RDPS_DewPointDepression_IsbL-0600_RLatLon0.09_PT046H.grib2 2026-05-04 02:55 376K
20260504T00Z_MSC_RDPS_DewPointDepression_IsbL-0650_RLatLon0.09_PT046H.grib2 2026-05-04 02:55 380K
20260504T00Z_MSC_RDPS_DewPointDepression_IsbL-0700_RLatLon0.09_PT046H.grib2 2026-05-04 02:55 392K
20260504T00Z_MSC_RDPS_DewPointDepression_IsbL-0750_RLatLon0.09_PT046H.grib2 2026-05-04 02:55 412K
20260504T00Z_MSC_RDPS_DewPointDepression_IsbL-0800_RLatLon0.09_PT046H.grib2 2026-05-04 02:55 442K
20260504T00Z_MSC_RDPS_DewPointDepression_IsbL-0850_RLatLon0.09_PT046H.grib2 2026-05-04 02:55 477K
20260504T00Z_MSC_RDPS_DewPointDepression_IsbL-0875_RLatLon0.09_PT046H.grib2 2026-05-04 02:55 478K
20260504T00Z_MSC_RDPS_DewPointDepression_IsbL-0900_RLatLon0.09_PT046H.grib2 2026-05-04 02:55 469K
20260504T00Z_MSC_RDPS_DewPointDepression_IsbL-0925_RLatLon0.09_PT046H.grib2 2026-05-04 02:55 458K
20260504T00Z_MSC_RDPS_DewPointDepression_IsbL-0950_RLatLon0.09_PT046H.grib2 2026-05-04 02:55 445K
20260504T00Z_MSC_RDPS_DewPointDepression_IsbL-0970_RLatLon0.09_PT046H.grib2 2026-05-04 02:55 439K
20260504T00Z_MSC_RDPS_DewPointDepression_IsbL-0985_RLatLon0.09_PT046H.grib2 2026-05-04 02:55 436K
20260504T00Z_MSC_RDPS_DewPointDepression_IsbL-1000_RLatLon0.09_PT046H.grib2 2026-05-04 02:55 433K
20260504T00Z_MSC_RDPS_DewPointDepression_IsbL-1015_RLatLon0.09_PT046H.grib2 2026-05-04 02:55 425K
20260504T00Z_MSC_RDPS_DewPoint_AGL-2m_RLatLon0.09_PT046H.grib2 2026-05-04 02:55 395K
20260504T00Z_MSC_RDPS_DownwardLongwaveRadiationFlux-Accum_Sfc_RLatLon0.09_PT046H.grib2 2026-05-04 02:55 368K
20260504T00Z_MSC_RDPS_DownwardShortwaveRadiationFlux-Accum_NTAtm_RLatLon0.09_PT046H.grib2 2026-05-04 02:55 120K
20260504T00Z_MSC_RDPS_DownwardShortwaveRadiationFlux-Accum_Sfc_RLatLon0.09_PT046H.grib2 2026-05-04 02:55 561K
20260504T00Z_MSC_RDPS_FreezingRain-Accum1h_Sfc_RLatLon0.09_PT046H.grib2 2026-05-04 02:55 15K
20260504T00Z_MSC_RDPS_FreezingRain-Accum_Sfc_RLatLon0.09_PT046H.grib2 2026-05-04 02:55 155K
20260504T00Z_MSC_RDPS_GeopotentialHeight_IsbL-0001_RLatLon0.09_PT046H.grib2 2026-05-04 02:55 349K
20260504T00Z_MSC_RDPS_GeopotentialHeight_IsbL-0005_RLatLon0.09_PT046H.grib2 2026-05-04 02:55 342K
20260504T00Z_MSC_RDPS_GeopotentialHeight_IsbL-0010_RLatLon0.09_PT046H.grib2 2026-05-04 02:55 311K
20260504T00Z_MSC_RDPS_GeopotentialHeight_IsbL-0020_RLatLon0.09_PT046H.grib2 2026-05-04 02:55 407K
20260504T00Z_MSC_RDPS_GeopotentialHeight_IsbL-0030_RLatLon0.09_PT046H.grib2 2026-05-04 02:55 410K
20260504T00Z_MSC_RDPS_GeopotentialHeight_IsbL-0050_RLatLon0.09_PT046H.grib2 2026-05-04 02:55 312K
20260504T00Z_MSC_RDPS_GeopotentialHeight_IsbL-0100_RLatLon0.09_PT046H.grib2 2026-05-04 02:55 288K
20260504T00Z_MSC_RDPS_GeopotentialHeight_IsbL-0150_RLatLon0.09_PT046H.grib2 2026-05-04 02:55 231K
20260504T00Z_MSC_RDPS_GeopotentialHeight_IsbL-0175_RLatLon0.09_PT046H.grib2 2026-05-04 02:55 234K
20260504T00Z_MSC_RDPS_GeopotentialHeight_IsbL-0200_RLatLon0.09_PT046H.grib2 2026-05-04 02:55 237K
20260504T00Z_MSC_RDPS_GeopotentialHeight_IsbL-0225_RLatLon0.09_PT046H.grib2 2026-05-04 02:55 239K
20260504T00Z_MSC_RDPS_GeopotentialHeight_IsbL-0250_RLatLon0.09_PT046H.grib2 2026-05-04 02:55 239K
20260504T00Z_MSC_RDPS_GeopotentialHeight_IsbL-0275_RLatLon0.09_PT046H.grib2 2026-05-04 02:55 238K
20260504T00Z_MSC_RDPS_GeopotentialHeight_IsbL-0300_RLatLon0.09_PT046H.grib2 2026-05-04 02:55 238K
20260504T00Z_MSC_RDPS_GeopotentialHeight_IsbL-0350_RLatLon0.09_PT046H.grib2 2026-05-04 02:55 234K
20260504T00Z_MSC_RDPS_GeopotentialHeight_IsbL-0400_RLatLon0.09_PT046H.grib2 2026-05-04 02:55 230K
20260504T00Z_MSC_RDPS_GeopotentialHeight_IsbL-0450_RLatLon0.09_PT046H.grib2 2026-05-04 02:55 301K
20260504T00Z_MSC_RDPS_GeopotentialHeight_IsbL-0500_RLatLon0.09_PT046H.grib2 2026-05-04 02:55 296K
20260504T00Z_MSC_RDPS_GeopotentialHeight_IsbL-0550_RLatLon0.09_PT046H.grib2 2026-05-04 02:55 293K
20260504T00Z_MSC_RDPS_GeopotentialHeight_IsbL-0600_RLatLon0.09_PT046H.grib2 2026-05-04 02:55 290K
20260504T00Z_MSC_RDPS_GeopotentialHeight_IsbL-0650_RLatLon0.09_PT046H.grib2 2026-05-04 02:55 260K
20260504T00Z_MSC_RDPS_GeopotentialHeight_IsbL-0700_RLatLon0.09_PT046H.grib2 2026-05-04 02:55 259K
20260504T00Z_MSC_RDPS_GeopotentialHeight_IsbL-0750_RLatLon0.09_PT046H.grib2 2026-05-04 02:55 346K
20260504T00Z_MSC_RDPS_GeopotentialHeight_IsbL-0800_RLatLon0.09_PT046H.grib2 2026-05-04 02:55 353K
20260504T00Z_MSC_RDPS_GeopotentialHeight_IsbL-0850_RLatLon0.09_PT046H.grib2 2026-05-04 02:55 362K
20260504T00Z_MSC_RDPS_GeopotentialHeight_IsbL-0875_RLatLon0.09_PT046H.grib2 2026-05-04 02:55 364K
20260504T00Z_MSC_RDPS_GeopotentialHeight_IsbL-0900_RLatLon0.09_PT046H.grib2 2026-05-04 02:55 368K
20260504T00Z_MSC_RDPS_GeopotentialHeight_IsbL-0925_RLatLon0.09_PT046H.grib2 2026-05-04 02:55 284K
20260504T00Z_MSC_RDPS_GeopotentialHeight_IsbL-0950_RLatLon0.09_PT046H.grib2 2026-05-04 02:55 287K
20260504T00Z_MSC_RDPS_GeopotentialHeight_IsbL-0970_RLatLon0.09_PT046H.grib2 2026-05-04 02:55 291K
20260504T00Z_MSC_RDPS_GeopotentialHeight_IsbL-0985_RLatLon0.09_PT046H.grib2 2026-05-04 02:55 298K
20260504T00Z_MSC_RDPS_GeopotentialHeight_IsbL-1000_RLatLon0.09_PT046H.grib2 2026-05-04 02:55 306K
20260504T00Z_MSC_RDPS_GeopotentialHeight_IsbL-1015_RLatLon0.09_PT046H.grib2 2026-05-04 02:55 318K
20260504T00Z_MSC_RDPS_Humidex_Sfc_RLatLon0.09_PT046H.grib2 2026-05-04 02:55 2.4M
20260504T00Z_MSC_RDPS_IcePellets-Accum1h_Sfc_RLatLon0.09_PT046H.grib2 2026-05-04 02:55 6.1K
20260504T00Z_MSC_RDPS_IcePellets-Accum_Sfc_RLatLon0.09_PT046H.grib2 2026-05-04 02:55 35K
20260504T00Z_MSC_RDPS_KIndex_Sfc_RLatLon0.09_PT046H.grib2 2026-05-04 02:55 2.5M
20260504T00Z_MSC_RDPS_LatentHeatNetFlux_Sfc_RLatLon0.09_PT046H.grib2 2026-05-04 02:55 391K
20260504T00Z_MSC_RDPS_LiftedIndex-MU-VT_IsbL-0500_RLatLon0.09_PT046H.grib2 2026-05-04 02:55 2.4M
20260504T00Z_MSC_RDPS_NetLongwaveRadiationFlux-Accum_Sfc_RLatLon0.09_PT046H.grib2 2026-05-04 02:55 543K
20260504T00Z_MSC_RDPS_NetShortwaveRadiationFlux-Accum_Sfc_RLatLon0.09_PT046H.grib2 2026-05-04 02:55 558K
20260504T00Z_MSC_RDPS_PlanetaryBoundaryLayerHeight_Sfc_RLatLon0.09_PT046H.grib2 2026-05-04 02:55 1.0M
20260504T00Z_MSC_RDPS_Precip-Accum1h_Sfc_RLatLon0.09_PT046H.grib2 2026-05-04 02:55 1.3M
20260504T00Z_MSC_RDPS_Precip-Accum_Sfc_RLatLon0.09_PT046H.grib2 2026-05-04 02:55 2.1M
20260504T00Z_MSC_RDPS_PrecipRate_Sfc_RLatLon0.09_PT046H.grib2 2026-05-04 02:55 201K
20260504T00Z_MSC_RDPS_PrecipType-Instant_Sfc_RLatLon0.09_PT046H.grib2 2026-05-04 02:55 602K
20260504T00Z_MSC_RDPS_Pressure-Trend3h_Sfc_RLatLon0.09_PT046H.grib2 2026-05-04 02:55 1.2M
20260504T00Z_MSC_RDPS_Pressure_MSL_RLatLon0.09_PT046H.grib2 2026-05-04 02:55 332K
20260504T00Z_MSC_RDPS_Pressure_PVU-1.5_RLatLon0.09_PT046H.grib2 2026-05-04 02:55 2.5M
20260504T00Z_MSC_RDPS_Pressure_PVU-1_RLatLon0.09_PT046H.grib2 2026-05-04 02:55 2.4M
20260504T00Z_MSC_RDPS_Pressure_PVU-2_RLatLon0.09_PT046H.grib2 2026-05-04 02:55 2.4M
20260504T00Z_MSC_RDPS_Pressure_Sfc_RLatLon0.09_PT046H.grib2 2026-05-04 02:55 498K
20260504T00Z_MSC_RDPS_RadiativeTemp_Sfc_RLatLon0.09_PT046H.grib2 2026-05-04 02:55 319K
20260504T00Z_MSC_RDPS_Rain-Accum1h_Sfc_RLatLon0.09_PT046H.grib2 2026-05-04 02:55 678K
20260504T00Z_MSC_RDPS_Rain-Accum_Sfc_RLatLon0.09_PT046H.grib2 2026-05-04 02:55 1.7M
20260504T00Z_MSC_RDPS_RelativeHumidity_AGL-2m_RLatLon0.09_PT046H.grib2 2026-05-04 02:55 1.0M
20260504T00Z_MSC_RDPS_RelativeHumidity_IsbL-0010_RLatLon0.09_PT046H.grib2 2026-05-04 02:55 690K
20260504T00Z_MSC_RDPS_RelativeHumidity_IsbL-0020_RLatLon0.09_PT046H.grib2 2026-05-04 02:55 665K
20260504T00Z_MSC_RDPS_RelativeHumidity_IsbL-0030_RLatLon0.09_PT046H.grib2 2026-05-04 02:55 641K
20260504T00Z_MSC_RDPS_RelativeHumidity_IsbL-0050_RLatLon0.09_PT046H.grib2 2026-05-04 02:55 360K
20260504T00Z_MSC_RDPS_RelativeHumidity_IsbL-0100_RLatLon0.09_PT046H.grib2 2026-05-04 02:55 275K
20260504T00Z_MSC_RDPS_RelativeHumidity_IsbL-0150_RLatLon0.09_PT046H.grib2 2026-05-04 02:55 426K
20260504T00Z_MSC_RDPS_RelativeHumidity_IsbL-0175_RLatLon0.09_PT046H.grib2 2026-05-04 02:55 496K
20260504T00Z_MSC_RDPS_RelativeHumidity_IsbL-0200_RLatLon0.09_PT046H.grib2 2026-05-04 02:55 568K
20260504T00Z_MSC_RDPS_RelativeHumidity_IsbL-0225_RLatLon0.09_PT046H.grib2 2026-05-04 02:55 624K
20260504T00Z_MSC_RDPS_RelativeHumidity_IsbL-0250_RLatLon0.09_PT046H.grib2 2026-05-04 02:55 686K
20260504T00Z_MSC_RDPS_RelativeHumidity_IsbL-0275_RLatLon0.09_PT046H.grib2 2026-05-04 02:55 713K
20260504T00Z_MSC_RDPS_RelativeHumidity_IsbL-0300_RLatLon0.09_PT046H.grib2 2026-05-04 02:55 758K
20260504T00Z_MSC_RDPS_RelativeHumidity_IsbL-0350_RLatLon0.09_PT046H.grib2 2026-05-04 02:55 779K
20260504T00Z_MSC_RDPS_RelativeHumidity_IsbL-0400_RLatLon0.09_PT046H.grib2 2026-05-04 02:55 792K
20260504T00Z_MSC_RDPS_RelativeHumidity_IsbL-0450_RLatLon0.09_PT046H.grib2 2026-05-04 02:55 799K
20260504T00Z_MSC_RDPS_RelativeHumidity_IsbL-0500_RLatLon0.09_PT046H.grib2 2026-05-04 02:55 802K
20260504T00Z_MSC_RDPS_RelativeHumidity_IsbL-0550_RLatLon0.09_PT046H.grib2 2026-05-04 02:55 818K
20260504T00Z_MSC_RDPS_RelativeHumidity_IsbL-0600_RLatLon0.09_PT046H.grib2 2026-05-04 02:55 844K
20260504T00Z_MSC_RDPS_RelativeHumidity_IsbL-0650_RLatLon0.09_PT046H.grib2 2026-05-04 02:55 847K
20260504T00Z_MSC_RDPS_RelativeHumidity_IsbL-0700_RLatLon0.09_PT046H.grib2 2026-05-04 02:55 874K
20260504T00Z_MSC_RDPS_RelativeHumidity_IsbL-0750_RLatLon0.09_PT046H.grib2 2026-05-04 02:55 926K
20260504T00Z_MSC_RDPS_RelativeHumidity_IsbL-0800_RLatLon0.09_PT046H.grib2 2026-05-04 02:55 1.0M
20260504T00Z_MSC_RDPS_RelativeHumidity_IsbL-0850_RLatLon0.09_PT046H.grib2 2026-05-04 02:55 1.0M
20260504T00Z_MSC_RDPS_RelativeHumidity_IsbL-0875_RLatLon0.09_PT046H.grib2 2026-05-04 02:55 1.1M
20260504T00Z_MSC_RDPS_RelativeHumidity_IsbL-0900_RLatLon0.09_PT046H.grib2 2026-05-04 02:55 1.1M
20260504T00Z_MSC_RDPS_RelativeHumidity_IsbL-0925_RLatLon0.09_PT046H.grib2 2026-05-04 02:55 1.1M
20260504T00Z_MSC_RDPS_RelativeHumidity_IsbL-0950_RLatLon0.09_PT046H.grib2 2026-05-04 02:55 1.1M
20260504T00Z_MSC_RDPS_RelativeHumidity_IsbL-0970_RLatLon0.09_PT046H.grib2 2026-05-04 02:55 1.0M
20260504T00Z_MSC_RDPS_RelativeHumidity_IsbL-0985_RLatLon0.09_PT046H.grib2 2026-05-04 02:55 1.0M
20260504T00Z_MSC_RDPS_RelativeHumidity_IsbL-1000_RLatLon0.09_PT046H.grib2 2026-05-04 02:55 1.0M
20260504T00Z_MSC_RDPS_RelativeHumidity_IsbL-1015_RLatLon0.09_PT046H.grib2 2026-05-04 02:55 1.0M
20260504T00Z_MSC_RDPS_Runoff-Accum_Sfc_RLatLon0.09_PT046H.grib2 2026-05-04 02:55 53K
20260504T00Z_MSC_RDPS_SWEATIndex_Sfc_RLatLon0.09_PT046H.grib2 2026-05-04 02:55 2.4M
20260504T00Z_MSC_RDPS_SeeingIndex_EAtm_RLatLon0.09_PT046H.grib2 2026-05-04 02:55 1.0M
20260504T00Z_MSC_RDPS_SensibleHeatNetFlux_Sfc_RLatLon0.09_PT046H.grib2 2026-05-04 02:55 353K
20260504T00Z_MSC_RDPS_ShowalterIndex_IsbL-0500_RLatLon0.09_PT046H.grib2 2026-05-04 02:55 2.6M
20260504T00Z_MSC_RDPS_SkyTransparencyIndex_EAtm_RLatLon0.09_PT046H.grib2 2026-05-04 02:55 698K
20260504T00Z_MSC_RDPS_Snow-Accum1h_Sfc_RLatLon0.09_PT046H.grib2 2026-05-04 02:55 454K
20260504T00Z_MSC_RDPS_Snow-Accum_Sfc_RLatLon0.09_PT046H.grib2 2026-05-04 02:55 725K
20260504T00Z_MSC_RDPS_SnowDensity_Sfc_RLatLon0.09_PT046H.grib2 2026-05-04 02:55 173K
20260504T00Z_MSC_RDPS_SnowDepth_Sfc_RLatLon0.09_PT046H.grib2 2026-05-04 02:55 651K
20260504T00Z_MSC_RDPS_SoilTemp_DBS-0to10cm_RLatLon0.09_PT046H.grib2 2026-05-04 02:55 242K
20260504T00Z_MSC_RDPS_SoilTemp_Sfc_RLatLon0.09_PT046H.grib2 2026-05-04 02:55 279K
20260504T00Z_MSC_RDPS_SoilVolumetricIceContent_Sfc_RLatLon0.09_PT046H.grib2 2026-05-04 02:55 152K
20260504T00Z_MSC_RDPS_SoilVolumetricWaterContent_DBS-0to10cm_RLatLon0.09_PT046H.grib2 2026-05-04 02:55 278K
20260504T00Z_MSC_RDPS_SoilVolumetricWaterContent_DBS-0to1cm_RLatLon0.09_PT046H.grib2 2026-05-04 02:55 341K
20260504T00Z_MSC_RDPS_SpecificHumidity_AGL-120m_RLatLon0.09_PT046H.grib2 2026-05-04 02:55 497K
20260504T00Z_MSC_RDPS_SpecificHumidity_AGL-2m_RLatLon0.09_PT046H.grib2 2026-05-04 02:55 667K
20260504T00Z_MSC_RDPS_SpecificHumidity_AGL-40m_RLatLon0.09_PT046H.grib2 2026-05-04 02:55 502K
20260504T00Z_MSC_RDPS_SpecificHumidity_AGL-80m_RLatLon0.09_PT046H.grib2 2026-05-04 02:55 498K
20260504T00Z_MSC_RDPS_SpecificHumidity_IsbL-0001_RLatLon0.09_PT046H.grib2 2026-05-04 02:55 374K
20260504T00Z_MSC_RDPS_SpecificHumidity_IsbL-0005_RLatLon0.09_PT046H.grib2 2026-05-04 02:55 372K
20260504T00Z_MSC_RDPS_SpecificHumidity_IsbL-0010_RLatLon0.09_PT046H.grib2 2026-05-04 02:55 401K
20260504T00Z_MSC_RDPS_SpecificHumidity_IsbL-0020_RLatLon0.09_PT046H.grib2 2026-05-04 02:55 383K
20260504T00Z_MSC_RDPS_SpecificHumidity_IsbL-0030_RLatLon0.09_PT046H.grib2 2026-05-04 02:55 375K
20260504T00Z_MSC_RDPS_SpecificHumidity_IsbL-0050_RLatLon0.09_PT046H.grib2 2026-05-04 02:55 485K
20260504T00Z_MSC_RDPS_SpecificHumidity_IsbL-0100_RLatLon0.09_PT046H.grib2 2026-05-04 02:55 418K
20260504T00Z_MSC_RDPS_SpecificHumidity_IsbL-0150_RLatLon0.09_PT046H.grib2 2026-05-04 02:55 465K
20260504T00Z_MSC_RDPS_SpecificHumidity_IsbL-0175_RLatLon0.09_PT046H.grib2 2026-05-04 02:55 458K
20260504T00Z_MSC_RDPS_SpecificHumidity_IsbL-0200_RLatLon0.09_PT046H.grib2 2026-05-04 02:55 484K
20260504T00Z_MSC_RDPS_SpecificHumidity_IsbL-0225_RLatLon0.09_PT046H.grib2 2026-05-04 02:55 463K
20260504T00Z_MSC_RDPS_SpecificHumidity_IsbL-0250_RLatLon0.09_PT046H.grib2 2026-05-04 02:55 567K
20260504T00Z_MSC_RDPS_SpecificHumidity_IsbL-0275_RLatLon0.09_PT046H.grib2 2026-05-04 02:55 485K
20260504T00Z_MSC_RDPS_SpecificHumidity_IsbL-0300_RLatLon0.09_PT046H.grib2 2026-05-04 02:55 586K
20260504T00Z_MSC_RDPS_SpecificHumidity_IsbL-0350_RLatLon0.09_PT046H.grib2 2026-05-04 02:55 552K
20260504T00Z_MSC_RDPS_SpecificHumidity_IsbL-0400_RLatLon0.09_PT046H.grib2 2026-05-04 02:55 531K
20260504T00Z_MSC_RDPS_SpecificHumidity_IsbL-0450_RLatLon0.09_PT046H.grib2 2026-05-04 02:55 580K
20260504T00Z_MSC_RDPS_SpecificHumidity_IsbL-0500_RLatLon0.09_PT046H.grib2 2026-05-04 02:55 512K
20260504T00Z_MSC_RDPS_SpecificHumidity_IsbL-0550_RLatLon0.09_PT046H.grib2 2026-05-04 02:55 585K
20260504T00Z_MSC_RDPS_SpecificHumidity_IsbL-0600_RLatLon0.09_PT046H.grib2 2026-05-04 02:55 634K
20260504T00Z_MSC_RDPS_SpecificHumidity_IsbL-0650_RLatLon0.09_PT046H.grib2 2026-05-04 02:55 551K
20260504T00Z_MSC_RDPS_SpecificHumidity_IsbL-0700_RLatLon0.09_PT046H.grib2 2026-05-04 02:55 596K
20260504T00Z_MSC_RDPS_SpecificHumidity_IsbL-0750_RLatLon0.09_PT046H.grib2 2026-05-04 02:55 666K
20260504T00Z_MSC_RDPS_SpecificHumidity_IsbL-0800_RLatLon0.09_PT046H.grib2 2026-05-04 02:55 734K
20260504T00Z_MSC_RDPS_SpecificHumidity_IsbL-0850_RLatLon0.09_PT046H.grib2 2026-05-04 02:55 813K
20260504T00Z_MSC_RDPS_SpecificHumidity_IsbL-0875_RLatLon0.09_PT046H.grib2 2026-05-04 02:55 841K
20260504T00Z_MSC_RDPS_SpecificHumidity_IsbL-0900_RLatLon0.09_PT046H.grib2 2026-05-04 02:55 713K
20260504T00Z_MSC_RDPS_SpecificHumidity_IsbL-0925_RLatLon0.09_PT046H.grib2 2026-05-04 02:55 716K
20260504T00Z_MSC_RDPS_SpecificHumidity_IsbL-0950_RLatLon0.09_PT046H.grib2 2026-05-04 02:55 713K
20260504T00Z_MSC_RDPS_SpecificHumidity_IsbL-0970_RLatLon0.09_PT046H.grib2 2026-05-04 02:55 707K
20260504T00Z_MSC_RDPS_SpecificHumidity_IsbL-0985_RLatLon0.09_PT046H.grib2 2026-05-04 02:55 700K
20260504T00Z_MSC_RDPS_SpecificHumidity_IsbL-1000_RLatLon0.09_PT046H.grib2 2026-05-04 02:55 695K
20260504T00Z_MSC_RDPS_SpecificHumidity_IsbL-1015_RLatLon0.09_PT046H.grib2 2026-05-04 02:55 685K
20260504T00Z_MSC_RDPS_SpecificHumidity_Sfc_RLatLon0.09_PT046H.grib2 2026-05-04 02:55 342K
20260504T00Z_MSC_RDPS_StormRelativeHelicity_EtaL-10000_RLatLon0.09_PT046H.grib2 2026-05-04 02:55 1.1M
20260504T00Z_MSC_RDPS_StormSeverityIndex_EtaL-10000_RLatLon0.09_PT046H.grib2 2026-05-04 02:55 1.2M
20260504T00Z_MSC_RDPS_Thickness_IsbL-0850to0700_RLatLon0.09_PT046H.grib2 2026-05-04 02:55 179K
20260504T00Z_MSC_RDPS_Thickness_IsbL-1000to0500_RLatLon0.09_PT046H.grib2 2026-05-04 02:55 202K
20260504T00Z_MSC_RDPS_Thickness_IsbL-1000to0850_RLatLon0.09_PT046H.grib2 2026-05-04 02:55 187K
20260504T00Z_MSC_RDPS_TotalCloudCover_Sfc_RLatLon0.09_PT046H.grib2 2026-05-04 02:55 649K
20260504T00Z_MSC_RDPS_TotalTotalsIndex_Sfc_RLatLon0.09_PT046H.grib2 2026-05-04 02:55 2.4M
20260504T00Z_MSC_RDPS_UVIndex-ClearSky_Sfc_RLatLon0.09_PT046H.grib2 2026-05-04 02:55 177K
20260504T00Z_MSC_RDPS_UVIndex_Sfc_RLatLon0.09_PT046H.grib2 2026-05-04 02:55 416K
20260504T00Z_MSC_RDPS_UpwardLongwaveRadiationFlux_NTAtm_RLatLon0.09_PT046H.grib2 2026-05-04 02:55 382K
20260504T00Z_MSC_RDPS_UpwardShortwaveRadiationFlux_NTAtm_RLatLon0.09_PT046H.grib2 2026-05-04 02:55 453K
20260504T00Z_MSC_RDPS_VerticalVelocity_IsbL-0250_RLatLon0.09_PT046H.grib2 2026-05-04 02:55 461K
20260504T00Z_MSC_RDPS_VerticalVelocity_IsbL-0500_RLatLon0.09_PT046H.grib2 2026-05-04 02:55 552K
20260504T00Z_MSC_RDPS_VerticalVelocity_IsbL-0700_RLatLon0.09_PT046H.grib2 2026-05-04 02:55 606K
20260504T00Z_MSC_RDPS_VerticalVelocity_IsbL-0850_RLatLon0.09_PT046H.grib2 2026-05-04 02:55 706K
20260504T00Z_MSC_RDPS_VerticalWindShear_EtaL-6500_RLatLon0.09_PT046H.grib2 2026-05-04 02:55 1.2M
20260504T00Z_MSC_RDPS_WindChill_Sfc_RLatLon0.09_PT046H.grib2 2026-05-04 02:55 1.1M
20260504T00Z_MSC_RDPS_WindDir_AGL-10m_RLatLon0.09_PT046H.grib2 2026-05-04 02:55 938K
20260504T00Z_MSC_RDPS_WindDir_AGL-120m_RLatLon0.09_PT046H.grib2 2026-05-04 02:55 591K
20260504T00Z_MSC_RDPS_WindDir_AGL-40m_RLatLon0.09_PT046H.grib2 2026-05-04 02:55 610K
20260504T00Z_MSC_RDPS_WindDir_AGL-80m_RLatLon0.09_PT046H.grib2 2026-05-04 02:55 599K
20260504T00Z_MSC_RDPS_WindDir_IsbL-0001_RLatLon0.09_PT046H.grib2 2026-05-04 02:55 305K
20260504T00Z_MSC_RDPS_WindDir_IsbL-0005_RLatLon0.09_PT046H.grib2 2026-05-04 02:55 385K
20260504T00Z_MSC_RDPS_WindDir_IsbL-0010_RLatLon0.09_PT046H.grib2 2026-05-04 02:55 390K
20260504T00Z_MSC_RDPS_WindDir_IsbL-0020_RLatLon0.09_PT046H.grib2 2026-05-04 02:55 411K
20260504T00Z_MSC_RDPS_WindDir_IsbL-0030_RLatLon0.09_PT046H.grib2 2026-05-04 02:55 410K
20260504T00Z_MSC_RDPS_WindDir_IsbL-0050_RLatLon0.09_PT046H.grib2 2026-05-04 02:55 435K
20260504T00Z_MSC_RDPS_WindDir_IsbL-0100_RLatLon0.09_PT046H.grib2 2026-05-04 02:55 419K
20260504T00Z_MSC_RDPS_WindDir_IsbL-0150_RLatLon0.09_PT046H.grib2 2026-05-04 02:55 423K
20260504T00Z_MSC_RDPS_WindDir_IsbL-0175_RLatLon0.09_PT046H.grib2 2026-05-04 02:55 451K
20260504T00Z_MSC_RDPS_WindDir_IsbL-0200_RLatLon0.09_PT046H.grib2 2026-05-04 02:55 458K
20260504T00Z_MSC_RDPS_WindDir_IsbL-0225_RLatLon0.09_PT046H.grib2 2026-05-04 02:55 454K
20260504T00Z_MSC_RDPS_WindDir_IsbL-0250_RLatLon0.09_PT046H.grib2 2026-05-04 02:55 455K
20260504T00Z_MSC_RDPS_WindDir_IsbL-0275_RLatLon0.09_PT046H.grib2 2026-05-04 02:55 473K
20260504T00Z_MSC_RDPS_WindDir_IsbL-0300_RLatLon0.09_PT046H.grib2 2026-05-04 02:55 474K
20260504T00Z_MSC_RDPS_WindDir_IsbL-0350_RLatLon0.09_PT046H.grib2 2026-05-04 02:55 497K
20260504T00Z_MSC_RDPS_WindDir_IsbL-0400_RLatLon0.09_PT046H.grib2 2026-05-04 02:55 512K
20260504T00Z_MSC_RDPS_WindDir_IsbL-0450_RLatLon0.09_PT046H.grib2 2026-05-04 02:55 534K
20260504T00Z_MSC_RDPS_WindDir_IsbL-0500_RLatLon0.09_PT046H.grib2 2026-05-04 02:55 541K
20260504T00Z_MSC_RDPS_WindDir_IsbL-0550_RLatLon0.09_PT046H.grib2 2026-05-04 02:55 554K
20260504T00Z_MSC_RDPS_WindDir_IsbL-0600_RLatLon0.09_PT046H.grib2 2026-05-04 02:55 581K
20260504T00Z_MSC_RDPS_WindDir_IsbL-0650_RLatLon0.09_PT046H.grib2 2026-05-04 02:55 627K
20260504T00Z_MSC_RDPS_WindDir_IsbL-0700_RLatLon0.09_PT046H.grib2 2026-05-04 02:55 676K
20260504T00Z_MSC_RDPS_WindDir_IsbL-0750_RLatLon0.09_PT046H.grib2 2026-05-04 02:55 728K
20260504T00Z_MSC_RDPS_WindDir_IsbL-0800_RLatLon0.09_PT046H.grib2 2026-05-04 02:55 788K
20260504T00Z_MSC_RDPS_WindDir_IsbL-0850_RLatLon0.09_PT046H.grib2 2026-05-04 02:55 859K
20260504T00Z_MSC_RDPS_WindDir_IsbL-0875_RLatLon0.09_PT046H.grib2 2026-05-04 02:55 886K
20260504T00Z_MSC_RDPS_WindDir_IsbL-0900_RLatLon0.09_PT046H.grib2 2026-05-04 02:55 896K
20260504T00Z_MSC_RDPS_WindDir_IsbL-0925_RLatLon0.09_PT046H.grib2 2026-05-04 02:55 902K
20260504T00Z_MSC_RDPS_WindDir_IsbL-0950_RLatLon0.09_PT046H.grib2 2026-05-04 02:55 895K
20260504T00Z_MSC_RDPS_WindDir_IsbL-0970_RLatLon0.09_PT046H.grib2 2026-05-04 02:55 899K
20260504T00Z_MSC_RDPS_WindDir_IsbL-0985_RLatLon0.09_PT046H.grib2 2026-05-04 02:55 906K
20260504T00Z_MSC_RDPS_WindDir_IsbL-1000_RLatLon0.09_PT046H.grib2 2026-05-04 02:55 916K
20260504T00Z_MSC_RDPS_WindDir_IsbL-1015_RLatLon0.09_PT046H.grib2 2026-05-04 02:55 929K
20260504T00Z_MSC_RDPS_WindGust-Max_AGL-10m_RLatLon0.09_PT046H.grib2 2026-05-04 02:55 947K
20260504T00Z_MSC_RDPS_WindGust-Min_AGL-10m_RLatLon0.09_PT046H.grib2 2026-05-04 02:55 1.0M
20260504T00Z_MSC_RDPS_WindGust_AGL-10m_RLatLon0.09_PT046H.grib2 2026-05-04 02:55 1.0M
20260504T00Z_MSC_RDPS_WindSpeed_AGL-10m_RLatLon0.09_PT046H.grib2 2026-05-04 02:55 845K
20260504T00Z_MSC_RDPS_WindSpeed_AGL-120m_RLatLon0.09_PT046H.grib2 2026-05-04 02:55 536K
20260504T00Z_MSC_RDPS_WindSpeed_AGL-40m_RLatLon0.09_PT046H.grib2 2026-05-04 02:55 544K
20260504T00Z_MSC_RDPS_WindSpeed_AGL-80m_RLatLon0.09_PT046H.grib2 2026-05-04 02:55 538K
20260504T00Z_MSC_RDPS_WindSpeed_IsbL-0001_RLatLon0.09_PT046H.grib2 2026-05-04 02:55 257K
20260504T00Z_MSC_RDPS_WindSpeed_IsbL-0005_RLatLon0.09_PT046H.grib2 2026-05-04 02:55 352K
20260504T00Z_MSC_RDPS_WindSpeed_IsbL-0010_RLatLon0.09_PT046H.grib2 2026-05-04 02:55 404K
20260504T00Z_MSC_RDPS_WindSpeed_IsbL-0020_RLatLon0.09_PT046H.grib2 2026-05-04 02:55 421K
20260504T00Z_MSC_RDPS_WindSpeed_IsbL-0030_RLatLon0.09_PT046H.grib2 2026-05-04 02:55 322K
20260504T00Z_MSC_RDPS_WindSpeed_IsbL-0050_RLatLon0.09_PT046H.grib2 2026-05-04 02:55 353K
20260504T00Z_MSC_RDPS_WindSpeed_IsbL-0100_RLatLon0.09_PT046H.grib2 2026-05-04 02:55 439K
20260504T00Z_MSC_RDPS_WindSpeed_IsbL-0150_RLatLon0.09_PT046H.grib2 2026-05-04 02:55 385K
20260504T00Z_MSC_RDPS_WindSpeed_IsbL-0175_RLatLon0.09_PT046H.grib2 2026-05-04 02:55 431K
20260504T00Z_MSC_RDPS_WindSpeed_IsbL-0200_RLatLon0.09_PT046H.grib2 2026-05-04 02:55 446K
20260504T00Z_MSC_RDPS_WindSpeed_IsbL-0225_RLatLon0.09_PT046H.grib2 2026-05-04 02:55 450K
20260504T00Z_MSC_RDPS_WindSpeed_IsbL-0250_RLatLon0.09_PT046H.grib2 2026-05-04 02:55 452K
20260504T00Z_MSC_RDPS_WindSpeed_IsbL-0275_RLatLon0.09_PT046H.grib2 2026-05-04 02:55 468K
20260504T00Z_MSC_RDPS_WindSpeed_IsbL-0300_RLatLon0.09_PT046H.grib2 2026-05-04 02:55 467K
20260504T00Z_MSC_RDPS_WindSpeed_IsbL-0350_RLatLon0.09_PT046H.grib2 2026-05-04 02:55 478K
20260504T00Z_MSC_RDPS_WindSpeed_IsbL-0400_RLatLon0.09_PT046H.grib2 2026-05-04 02:55 465K
20260504T00Z_MSC_RDPS_WindSpeed_IsbL-0450_RLatLon0.09_PT046H.grib2 2026-05-04 02:55 466K
20260504T00Z_MSC_RDPS_WindSpeed_IsbL-0500_RLatLon0.09_PT046H.grib2 2026-05-04 02:55 467K
20260504T00Z_MSC_RDPS_WindSpeed_IsbL-0550_RLatLon0.09_PT046H.grib2 2026-05-04 02:55 468K
20260504T00Z_MSC_RDPS_WindSpeed_IsbL-0600_RLatLon0.09_PT046H.grib2 2026-05-04 02:55 477K
20260504T00Z_MSC_RDPS_WindSpeed_IsbL-0650_RLatLon0.09_PT046H.grib2 2026-05-04 02:55 616K
20260504T00Z_MSC_RDPS_WindSpeed_IsbL-0700_RLatLon0.09_PT046H.grib2 2026-05-04 02:55 638K
20260504T00Z_MSC_RDPS_WindSpeed_IsbL-0750_RLatLon0.09_PT046H.grib2 2026-05-04 02:55 712K
20260504T00Z_MSC_RDPS_WindSpeed_IsbL-0800_RLatLon0.09_PT046H.grib2 2026-05-04 02:55 759K
20260504T00Z_MSC_RDPS_WindSpeed_IsbL-0850_RLatLon0.09_PT046H.grib2 2026-05-04 02:55 822K
20260504T00Z_MSC_RDPS_WindSpeed_IsbL-0875_RLatLon0.09_PT046H.grib2 2026-05-04 02:55 848K
20260504T00Z_MSC_RDPS_WindSpeed_IsbL-0900_RLatLon0.09_PT046H.grib2 2026-05-04 02:55 864K
20260504T00Z_MSC_RDPS_WindSpeed_IsbL-0925_RLatLon0.09_PT046H.grib2 2026-05-04 02:55 827K
20260504T00Z_MSC_RDPS_WindSpeed_IsbL-0950_RLatLon0.09_PT046H.grib2 2026-05-04 02:55 826K
20260504T00Z_MSC_RDPS_WindSpeed_IsbL-0970_RLatLon0.09_PT046H.grib2 2026-05-04 02:55 871K
20260504T00Z_MSC_RDPS_WindSpeed_IsbL-0985_RLatLon0.09_PT046H.grib2 2026-05-04 02:55 866K
20260504T00Z_MSC_RDPS_WindSpeed_IsbL-1000_RLatLon0.09_PT046H.grib2 2026-05-04 02:55 854K
20260504T00Z_MSC_RDPS_WindSpeed_IsbL-1015_RLatLon0.09_PT046H.grib2 2026-05-04 02:55 846K
20260504T00Z_MSC_RDPS_WindU_AGL-10m_RLatLon0.09_PT046H.grib2 2026-05-04 02:55 435K
20260504T00Z_MSC_RDPS_WindU_AGL-120m_RLatLon0.09_PT046H.grib2 2026-05-04 02:55 417K
20260504T00Z_MSC_RDPS_WindU_AGL-40m_RLatLon0.09_PT046H.grib2 2026-05-04 02:55 538K
20260504T00Z_MSC_RDPS_WindU_AGL-80m_RLatLon0.09_PT046H.grib2 2026-05-04 02:55 535K
20260504T00Z_MSC_RDPS_WindU_IsbL-0001_RLatLon0.09_PT046H.grib2 2026-05-04 02:55 293K
20260504T00Z_MSC_RDPS_WindU_IsbL-0005_RLatLon0.09_PT046H.grib2 2026-05-04 02:55 286K
20260504T00Z_MSC_RDPS_WindU_IsbL-0010_RLatLon0.09_PT046H.grib2 2026-05-04 02:55 298K
20260504T00Z_MSC_RDPS_WindU_IsbL-0020_RLatLon0.09_PT046H.grib2 2026-05-04 02:55 314K
20260504T00Z_MSC_RDPS_WindU_IsbL-0030_RLatLon0.09_PT046H.grib2 2026-05-04 02:55 353K
20260504T00Z_MSC_RDPS_WindU_IsbL-0050_RLatLon0.09_PT046H.grib2 2026-05-04 02:55 381K
20260504T00Z_MSC_RDPS_WindU_IsbL-0100_RLatLon0.09_PT046H.grib2 2026-05-04 02:55 335K
20260504T00Z_MSC_RDPS_WindU_IsbL-0150_RLatLon0.09_PT046H.grib2 2026-05-04 02:55 401K
20260504T00Z_MSC_RDPS_WindU_IsbL-0175_RLatLon0.09_PT046H.grib2 2026-05-04 02:55 426K
20260504T00Z_MSC_RDPS_WindU_IsbL-0200_RLatLon0.09_PT046H.grib2 2026-05-04 02:55 341K
20260504T00Z_MSC_RDPS_WindU_IsbL-0225_RLatLon0.09_PT046H.grib2 2026-05-04 02:55 342K
20260504T00Z_MSC_RDPS_WindU_IsbL-0250_RLatLon0.09_PT046H.grib2 2026-05-04 02:55 341K
20260504T00Z_MSC_RDPS_WindU_IsbL-0275_RLatLon0.09_PT046H.grib2 2026-05-04 02:55 355K
20260504T00Z_MSC_RDPS_WindU_IsbL-0300_RLatLon0.09_PT046H.grib2 2026-05-04 02:55 353K
20260504T00Z_MSC_RDPS_WindU_IsbL-0350_RLatLon0.09_PT046H.grib2 2026-05-04 02:55 363K
20260504T00Z_MSC_RDPS_WindU_IsbL-0400_RLatLon0.09_PT046H.grib2 2026-05-04 02:55 470K
20260504T00Z_MSC_RDPS_WindU_IsbL-0450_RLatLon0.09_PT046H.grib2 2026-05-04 02:55 471K
20260504T00Z_MSC_RDPS_WindU_IsbL-0500_RLatLon0.09_PT046H.grib2 2026-05-04 02:55 474K
20260504T00Z_MSC_RDPS_WindU_IsbL-0550_RLatLon0.09_PT046H.grib2 2026-05-04 02:55 475K
20260504T00Z_MSC_RDPS_WindU_IsbL-0600_RLatLon0.09_PT046H.grib2 2026-05-04 02:55 485K
20260504T00Z_MSC_RDPS_WindU_IsbL-0650_RLatLon0.09_PT046H.grib2 2026-05-04 02:55 505K
20260504T00Z_MSC_RDPS_WindU_IsbL-0700_RLatLon0.09_PT046H.grib2 2026-05-04 02:55 509K
20260504T00Z_MSC_RDPS_WindU_IsbL-0750_RLatLon0.09_PT046H.grib2 2026-05-04 02:55 535K
20260504T00Z_MSC_RDPS_WindU_IsbL-0800_RLatLon0.09_PT046H.grib2 2026-05-04 02:55 575K
20260504T00Z_MSC_RDPS_WindU_IsbL-0850_RLatLon0.09_PT046H.grib2 2026-05-04 02:55 630K
20260504T00Z_MSC_RDPS_WindU_IsbL-0875_RLatLon0.09_PT046H.grib2 2026-05-04 02:55 651K
20260504T00Z_MSC_RDPS_WindU_IsbL-0900_RLatLon0.09_PT046H.grib2 2026-05-04 02:55 663K
20260504T00Z_MSC_RDPS_WindU_IsbL-0925_RLatLon0.09_PT046H.grib2 2026-05-04 02:55 669K
20260504T00Z_MSC_RDPS_WindU_IsbL-0950_RLatLon0.09_PT046H.grib2 2026-05-04 02:55 663K
20260504T00Z_MSC_RDPS_WindU_IsbL-0970_RLatLon0.09_PT046H.grib2 2026-05-04 02:55 659K
20260504T00Z_MSC_RDPS_WindU_IsbL-0985_RLatLon0.09_PT046H.grib2 2026-05-04 02:55 794K
20260504T00Z_MSC_RDPS_WindU_IsbL-1000_RLatLon0.09_PT046H.grib2 2026-05-04 02:55 787K
20260504T00Z_MSC_RDPS_WindU_IsbL-1015_RLatLon0.09_PT046H.grib2 2026-05-04 02:55 782K
20260504T00Z_MSC_RDPS_WindV_AGL-10m_RLatLon0.09_PT046H.grib2 2026-05-04 02:55 436K
20260504T00Z_MSC_RDPS_WindV_AGL-120m_RLatLon0.09_PT046H.grib2 2026-05-04 02:55 418K
20260504T00Z_MSC_RDPS_WindV_AGL-40m_RLatLon0.09_PT046H.grib2 2026-05-04 02:55 539K
20260504T00Z_MSC_RDPS_WindV_AGL-80m_RLatLon0.09_PT046H.grib2 2026-05-04 02:55 419K
20260504T00Z_MSC_RDPS_WindV_IsbL-0001_RLatLon0.09_PT046H.grib2 2026-05-04 02:55 296K
20260504T00Z_MSC_RDPS_WindV_IsbL-0005_RLatLon0.09_PT046H.grib2 2026-05-04 02:55 291K
20260504T00Z_MSC_RDPS_WindV_IsbL-0010_RLatLon0.09_PT046H.grib2 2026-05-04 02:55 302K
20260504T00Z_MSC_RDPS_WindV_IsbL-0020_RLatLon0.09_PT046H.grib2 2026-05-04 02:55 317K
20260504T00Z_MSC_RDPS_WindV_IsbL-0030_RLatLon0.09_PT046H.grib2 2026-05-04 02:55 317K
20260504T00Z_MSC_RDPS_WindV_IsbL-0050_RLatLon0.09_PT046H.grib2 2026-05-04 02:55 346K
20260504T00Z_MSC_RDPS_WindV_IsbL-0100_RLatLon0.09_PT046H.grib2 2026-05-04 02:55 428K
20260504T00Z_MSC_RDPS_WindV_IsbL-0150_RLatLon0.09_PT046H.grib2 2026-05-04 02:55 399K
20260504T00Z_MSC_RDPS_WindV_IsbL-0175_RLatLon0.09_PT046H.grib2 2026-05-04 02:55 327K
20260504T00Z_MSC_RDPS_WindV_IsbL-0200_RLatLon0.09_PT046H.grib2 2026-05-04 02:55 339K
20260504T00Z_MSC_RDPS_WindV_IsbL-0225_RLatLon0.09_PT046H.grib2 2026-05-04 02:55 341K
20260504T00Z_MSC_RDPS_WindV_IsbL-0250_RLatLon0.09_PT046H.grib2 2026-05-04 02:55 343K
20260504T00Z_MSC_RDPS_WindV_IsbL-0275_RLatLon0.09_PT046H.grib2 2026-05-04 02:55 356K
20260504T00Z_MSC_RDPS_WindV_IsbL-0300_RLatLon0.09_PT046H.grib2 2026-05-04 02:55 354K
20260504T00Z_MSC_RDPS_WindV_IsbL-0350_RLatLon0.09_PT046H.grib2 2026-05-04 02:55 362K
20260504T00Z_MSC_RDPS_WindV_IsbL-0400_RLatLon0.09_PT046H.grib2 2026-05-04 02:55 366K
20260504T00Z_MSC_RDPS_WindV_IsbL-0450_RLatLon0.09_PT046H.grib2 2026-05-04 02:55 366K
20260504T00Z_MSC_RDPS_WindV_IsbL-0500_RLatLon0.09_PT046H.grib2 2026-05-04 02:55 469K
20260504T00Z_MSC_RDPS_WindV_IsbL-0550_RLatLon0.09_PT046H.grib2 2026-05-04 02:55 471K
20260504T00Z_MSC_RDPS_WindV_IsbL-0600_RLatLon0.09_PT046H.grib2 2026-05-04 02:55 481K
20260504T00Z_MSC_RDPS_WindV_IsbL-0650_RLatLon0.09_PT046H.grib2 2026-05-04 02:55 499K
20260504T00Z_MSC_RDPS_WindV_IsbL-0700_RLatLon0.09_PT046H.grib2 2026-05-04 02:55 518K
20260504T00Z_MSC_RDPS_WindV_IsbL-0750_RLatLon0.09_PT046H.grib2 2026-05-04 02:55 529K
20260504T00Z_MSC_RDPS_WindV_IsbL-0800_RLatLon0.09_PT046H.grib2 2026-05-04 02:55 569K
20260504T00Z_MSC_RDPS_WindV_IsbL-0850_RLatLon0.09_PT046H.grib2 2026-05-04 02:55 624K
20260504T00Z_MSC_RDPS_WindV_IsbL-0875_RLatLon0.09_PT046H.grib2 2026-05-04 02:55 647K
20260504T00Z_MSC_RDPS_WindV_IsbL-0900_RLatLon0.09_PT046H.grib2 2026-05-04 02:55 666K
20260504T00Z_MSC_RDPS_WindV_IsbL-0925_RLatLon0.09_PT046H.grib2 2026-05-04 02:55 673K
20260504T00Z_MSC_RDPS_WindV_IsbL-0950_RLatLon0.09_PT046H.grib2 2026-05-04 02:55 669K
20260504T00Z_MSC_RDPS_WindV_IsbL-0970_RLatLon0.09_PT046H.grib2 2026-05-04 02:55 668K
20260504T00Z_MSC_RDPS_WindV_IsbL-0985_RLatLon0.09_PT046H.grib2 2026-05-04 02:55 658K
20260504T00Z_MSC_RDPS_WindV_IsbL-1000_RLatLon0.09_PT046H.grib2 2026-05-04 02:55 651K
20260504T00Z_MSC_RDPS_WindV_IsbL-1015_RLatLon0.09_PT046H.grib2 2026-05-04 02:55 784K